Location: Bamazo
(6.7448°N, 10.8189°W)
Time: 00:41:16
(UTC+00:00)

Helios 1A Rocket - Pass Details

Date: 18 September 2020
Orbit: 563 x 586 km, 98.3° (Epoch: 21 October)

Event Time Altitude Azimuth Distance (km) Brightness Sun altitude
Rises 19:31:26 0° 174° (S) 2,761 6.3 -13.3°
Reaches altitude 10° 19:33:35 10° 177° (S) 1,867 5.5 -13.8°
Maximum altitude 19:37:35 62° 258° (WSW) 645 3.4 -14.8°
Drops below altitude 10° 19:41:36 10° 339° (NNW) 1,877 5.8 -15.8°
Sets 19:43:46 0° 343° (NNW) 2,777 6.7 -16.4°
